Probability
0 0 0 0 0 1 0 0 0 0 0 0 0 0 0 0 0 0 0 0 1 3 7 11 12 12 14 14 9 7 9 9 6 6 7 5 4 3 3 3 3 3 3
0 0 0 0 1 1 1 0 0 0 0 0 0 0 0 0 0 0 0 0 0 2 6 10 12 13 15 14 10 8 8 9 7 6 7 6 4 4 3 3 3 3 3
0 0 0 0 1 1 1 0 0 0 0 0 0 0 0 0 0 0 0 0 0 1 5 8 11 13 15 15 13 10 9 8 7 7 7 6 6 5 4 3 3 3 3
0 0 0 0 0 0 0 0 0 0 0 0 0 0 0 0 0 0 0 0 0 0 2 4 7 11 14 15 13 11 9 6 5 6 6 6 6 6 5 4 3 3 3
0 0 0 0 0 0 0 0 0 0 0 0 0 0 0 0 0 0 0 0 0 0 0 1 3 6 10 12 11 10 9 5 3 3 4 5 6 6 6 5 4 3 3
0 0 0 0 0 0 0 0 0 0 0 0 0 0 0 0 0 0 0 0 0 0 0 0 0 2 4 7 8 8 7 5 3 2 2 4 5 5 5 6 5 4 4
0 0 0 0 0 0 0 0 0 0 0 0 0 0 0 0 0 0 0 0 1 0 0 0 0 0 0 2 4 5 6 6 5 3 1 2 3 3 4 5 6 5 4
0 0 0 0 0 0 0 0 0 0 0 0 0 0 0 0 0 0 0 0 0 0 0 0 0 0 0 0 1 2 4 6 5 3 1 1 2 2 2 4 6 6 5
0 0 0 0 0 0 0 0 0 0 0 0 0 0 0 0 0 0 0 0 0 0 0 0 0 0 0 0 0 0 2 3 3 2 1 1 1 1 1 4 5 5 6
0 0 0 0 0 0 0 0 0 0 0 0 0 0 0 0 0 0 0 0 0 1 1 0 0 0 0 0 0 0 0 0 1 1 1 0 1 1 2 3 4 5 5
0 0 0 0 0 0 0 0 0 0 0 0 0 0 0 0 0 0 0 0 0 1 1 0 0 0 0 0 0 0 0 0 0 1 0 0 0 1 2 3 4 4 4
0 0 0 0 0 0 0 0 0 0 0 0 0 0 0 0 0 0 0 0 0 1 1 0 0 0 0 0 0 0 0 0 0 0 0 0 0 1 1 2 2 3 3
1 1 0 0 0 0 0 0 0 0 0 0 0 0 0 0 0 0 0 0 0 0 0 0 0 0 0 0 0 0 0 0 0 0 0 0 0 0 0 1 1 1 2
0 0 0 0 0 0 0 0 0 0 0 0 0 0 0 0 0 0 0 0 0 0 0 0 0 0 0 0 0 0 0 0 0 0 0 0 0 0 0 0 0 0 1
0 0 0 0 0 0 0 0 0 0 0 0 0 0 0 0 0 0 0 0 0 0 0 0 0 0 0 0 0 0 0 0 0 0 0 0 0 0 0 0 0 0 0
0 0 0 0 0 0 0 0 0 0 0 0 0 0 0 0 0 0 0 0 0 0 0 0 0 0 0 0 0 0 0 0 0 0 0 0 0 0 0 0 0 0 0
0 0 0 0 0 0 0 0 0 0 0 0 0 0 0 0 0 0 0 0 0 0 0 0 0 0 0 0 0 0 0 0 0 0 0 0 0 0 0 0 0 0 0
0 0 0 0 0 0 0 0 0 0 0 0 0 0 0 0 0 0 0 0 0 0 0 0 0 0 0 0 0 0 0 0 0 0 0 0 0 0 0 0 0 0 0
0 0 0 0 0 0 0 0 0 0 0 0 0 0 0 0 0 0 0 0 0 0 0 0 0 0 0 0 0 0 0 0 0 0 0 0 0 0 0 0 0 0 0
0 0 0 0 0 0 0 0 0 0 0 0 0 0 0 0 0 0 0 0 0 0 0 0 0 0 0 0 0 0 0 0 0 0 0 0 0 0 0 0 0 0 0
0 0 0 0 0 0 0 0 0 0 0 0 0 0 0 0 0 0 0 0 0 0 0 0 0 0 0 0 0 0 0 0 0 0 0 0 0 0 0 0 0 0 0
0 0 0 0 0 0 0 0 0 0 0 0 0 0 0 0 0 0 0 0 0 0 0 0 0 0 0 0 0 0 0 0 0 0 0 0 0 0 0 0 0 0 0
0 0 0 0 0 0 0 0 0 0 0 0 0 0 0 0 0 0 0 0 0 0 0 0 0 0 0 0 0 0 0 0 0 0 0 0 0 0 0 0 0 0 0
0 0 0 0 0 0 0 0 0 0 0 0 0 0 0 0 0 0 0 0 0 0 0 0 0 0 0 0 0 0 0 0 0 0 0 0 0 0 0 0 0 0 0
0 0 0 0 0 0 0 0 0 0 0 0 0 0 0 0 0 0 0 0 0 0 0 0 0 0 0 0 0 0 0 0 0 0 0 0 0 0 0 0 0 0 0
0 0 0 0 0 0 0 0 0 0 0 0 0 0 0 0 0 0 0 0 0 0 0 0 0 0 0 0 0 0 0 0 0 0 0 0 0 0 0 0 0 0 0
Wind_Speed
2 2 1 1 2 2 2 2 2 3 3 3 3 4 4 5 5 5 4 9 12 15 17 17 17 17 16 17 16 16 16 16 16 15 14 13 12 11 10 9 8 7 6
1 1 2 1 1 1 1 2 3 3 3 3 4 4 4 5 5 5 5 7 11 13 16 18 18 17 17 16 16 16 16 17 16 16 15 14 13 12 11 10 9 8 7
1 1 2 2 2 2 2 1 2 2 3 3 4 5 4 5 5 6 6 5 6 11 14 16 18 18 17 17 16 16 16 16 16 16 15 14 14 13 12 11 10 9 8
1 1 1 2 2 2 2 2 1 2 3 3 4 4 4 4 6 6 6 6 5 6 9 14 16 18 18 17 17 16 16 15 16 16 16 15 14 14 13 12 11 10 9
2 2 2 2 2 2 2 3 2 2 3 4 4 4 4 4 5 6 6 7 7 6 6 9 13 15 17 17 17 16 16 16 16 16 16 16 15 14 14 13 12 11 10
3 2 2 3 2 2 2 2 3 3 3 3 5 5 4 5 5 5 6 6 6 7 7 7 7 9 14 16 17 17 17 16 16 16 16 16 16 15 15 14 12 12 11
4 3 3 3 3 3 4 3 2 3 3 2 2 4 5 5 5 5 4 5 6 6 6 7 6 5 6 14 16 17 18 17 17 16 16 16 16 15 15 14 13 12 12
4 4 4 3 4 3 4 3 2 2 2 2 1 3 4 4 3 4 4 5 6 5 6 7 7 7 6 6 9 15 17 17 17 17 16 17 16 15 14 14 14 13 12
5 5 5 4 4 4 4 4 4 4 3 3 2 2 2 4 4 3 5 5 5 4 5 6 7 8 8 6 7 11 15 17 18 18 17 16 16 15 14 14 13 13 12
6 6 6 5 5 4 5 5 5 4 4 4 4 3 4 4 4 4 4 4 5 6 6 6 7 7 8 7 8 11 13 16 18 18 17 15 15 15 15 14 12 12 12
6 6 6 6 6 5 6 6 6 5 4 5 4 4 4 4 4 5 7 5 4 5 5 6 5 6 7 7 7 9 12 14 17 17 16 16 15 15 14 13 12 11 10
5 7 7 6 6 6 6 7 7 7 6 6 6 5 5 5 4 4 6 6 6 5 5 5 5 5 6 6 8 10 12 13 14 14 14 14 13 14 13 12 11 10 10
5 7 7 6 6 7 7 7 7 7 7 8 7 6 6 7 5 5 6 6 6 5 4 4 5 5 5 5 6 10 11 12 13 12 11 10 10 11 11 11 10 10 9
7 7 7 8 8 8 8 7 6 8 7 8 9 8 7 7 6 6 6 6 6 5 4 5 3 5 5 5 7 9 8 11 11 10 9 8 7 8 9 9 9 9 9
6 7 8 8 8 8 8 8 7 8 8 8 9 9 8 7 7 6 6 6 6 7 7 4 3 4 4 4 6 6 6 10 10 9 8 8 7 7 8 9 8 8 7
7 7 8 8 8 8 8 8 7 8 9 9 7 9 9 7 7 6 6 7 6 7 8 4 4 3 4 4 7 6 6 9 10 10 9 8 7 7 8 8 8 8 7
7 8 8 8 8 8 8 8 9 9 10 10 9 10 11 9 7 7 6 6 6 6 8 5 3 2 3 4 4 3 4 4 5 9 9 8 7 7 8 7 8 8 8
7 8 8 9 9 9 8 9 10 10 10 11 11 11 11 9 9 8 7 8 7 7 6 6 4 2 3 4 3 3 2 2 3 7 7 7 7 7 8 8 8 7 6
7 8 8 9 9 9 9 9 10 10 11 12 11 11 11 10 10 8 8 8 7 6 5 4 4 2 2 2 2 1 2 2 2 4 6 6 7 7 7 8 8 7 6
7 8 8 9 9 9 9 10 10 10 11 11 10 11 11 11 10 9 8 8 6 6 5 4 3 2 2 2 2 2 1 1 1 1 2 3 5 5 6 7 7 6 6
8 8 8 9 9 8 8 9 9 10 10 10 10 10 11 11 13 11 9 7 7 6 5 4 3 2 2 3 3 2 2 1 0 1 2 1 2 2 3 4 5 6 6
8 7 8 8 9 9 13 15 12 9 9 10 10 10 9 10 12 15 15 12 10 8 7 5 4 5 5 4 3 3 3 2 1 1 2 0 1 2 2 2 4 5 6
7 8 8 8 9 11 15 16 16 11 9 9 9 8 7 8 10 8 9 10 10 11 11 8 7 7 6 6 6 4 3 2 1 2 2 0 0 1 1 2 5 6 6
7 8 8 8 9 11 15 16 16 11 9 9 9 9 8 8 7 7 6 5 5 5 7 6 6 6 5 6 6 5 4 3 2 0 1 1 1 1 1 1 4 5 5
8 8 8 8 9 11 15 16 14 7 6 8 8 8 8 8 9 8 6 5 4 2 2 4 5 5 6 7 6 5 5 4 2 1 1 2 2 2 1 1 1 3 3
8 8 8 8 9 10 13 14 13 5 5 5 5 5 9 9 9 8 6 6 5 4 3 3 3 4 4 6 6 6 6 5 3 2 2 3 3 3 1 1 1 1 1
Wind_Direction
351 337 333 339 340 342 339 331 321 311 300 284 273 263 253 242 237 230 234 232 232 232 233 231 225 220 217 212 209 208 205 202 202 201 202 202 203 204 206 209 216 224 228
347 338 321 313 308 310 310 305 306 294 284 283 278 270 263 252 244 240 237 235 234 235 237 236 232 226 221 217 214 211 210 207 207 206 205 205 206 208 210 215 219 223 229
322 324 318 305 291 294 300 306 309 310 307 300 287 277 269 260 254 245 241 235 232 236 239 241 238 231 226 222 219 216 213 214 210 209 209 210 211 212 214 218 220 222 227
289 291 294 292 288 293 297 294 293 304 296 291 286 279 275 267 259 250 243 238 232 233 235 239 240 236 231 227 223 221 217 217 216 214 213 213 215 216 218 219 220 222 227
267 253 256 267 280 280 280 286 298 293 290 292 284 279 275 270 262 257 247 240 235 232 232 236 238 238 234 231 228 225 222 220 221 220 217 217 217 218 220 222 221 223 229
260 252 254 257 260 264 266 269 279 287 280 281 291 289 278 272 263 251 246 243 239 236 233 235 233 236 235 233 232 231 227 225 223 225 221 220 221 221 222 223 224 227 230
254 245 254 253 246 242 244 250 266 277 287 295 302 302 292 269 258 253 246 243 243 242 237 232 228 226 233 233 232 234 232 230 228 227 225 222 223 224 225 225 225 227 231
250 251 242 244 245 246 249 245 245 248 272 284 285 309 304 306 280 261 252 246 246 243 241 239 232 228 226 225 228 231 233 233 232 229 228 225 223 224 227 228 228 229 231
249 245 242 240 242 236 237 239 233 230 255 266 230 220 260 269 304 275 254 252 250 244 243 241 236 233 229 226 223 223 228 233 234 232 232 229 225 225 228 229 231 230 231
252 245 242 239 237 237 238 238 237 228 229 254 257 236 240 250 271 290 282 260 256 253 247 246 239 236 233 226 226 225 226 231 235 234 233 232 231 229 229 229 230 234 234
250 245 240 237 235 237 239 238 238 233 225 237 245 253 258 254 248 260 278 279 272 256 248 240 234 236 236 229 222 224 225 229 234 235 235 233 236 235 230 229 230 233 236
255 247 243 238 236 237 239 240 235 232 233 238 242 243 243 241 241 247 261 268 272 272 257 242 233 231 232 230 230 227 224 226 231 234 234 234 241 237 232 228 229 230 235
257 249 247 240 240 240 241 242 238 235 232 235 239 242 243 242 245 249 257 267 271 277 259 245 231 227 231 228 229 221 222 223 226 228 230 231 237 234 226 229 231 230 232
251 249 244 242 242 242 247 244 244 242 239 238 245 243 244 243 238 241 244 255 270 276 260 251 240 225 224 224 232 217 216 220 221 219 221 217 225 222 217 223 226 227 226
255 251 247 247 246 244 244 244 246 244 241 241 244 245 245 244 239 239 239 236 242 262 266 247 243 229 223 221 222 219 214 219 219 211 208 205 208 207 207 214 217 220 217
254 253 253 250 250 249 246 245 249 247 245 246 246 247 247 246 242 238 238 239 236 242 260 247 241 244 228 236 229 223 217 215 210 206 201 200 199 204 202 205 209 209 203
257 258 258 256 253 252 250 246 248 250 250 252 250 247 248 244 240 241 238 238 241 235 249 264 247 232 223 227 226 220 208 200 195 199 202 198 194 199 196 201 205 200 201
260 259 261 259 258 258 252 249 253 253 252 253 253 250 250 246 240 240 237 238 240 232 227 251 255 230 227 219 211 212 211 199 188 190 192 190 189 198 194 195 194 195 196
271 269 265 263 261 258 254 252 251 252 252 252 251 250 248 242 242 239 237 239 240 234 216 222 241 227 221 205 187 214 182 168 186 181 179 183 186 193 191 191 189 189 191
273 271 268 267 263 261 259 257 256 255 255 254 251 251 247 238 238 236 239 236 235 229 215 210 222 211 210 197 182 182 167 144 160 158 173 175 177 184 182 183 188 189 189
274 273 271 272 268 264 261 262 260 259 258 258 256 252 244 239 240 239 241 231 221 220 208 205 208 209 205 193 197 173 168 132 51 164 143 159 158 161 170 175 182 187 189
278 278 275 274 275 274 276 275 273 267 262 257 258 254 243 237 243 244 247 240 225 216 205 202 208 202 207 198 177 164 159 162 219 160 130 60 131 161 169 177 183 182 183
280 279 278 275 275 277 279 280 276 273 262 256 253 249 247 243 242 236 239 239 235 230 217 207 204 206 200 192 175 175 180 176 199 177 132 219 209 167 165 171 171 177 178
284 280 279 279 279 279 282 282 282 274 263 255 249 240 235 236 227 222 214 218 222 220 216 209 204 203 197 184 180 176 159 117 83 81 157 184 187 142 105 123 166 166 169
288 283 283 281 280 282 282 284 283 271 259 256 249 234 224 223 225 221 200 197 196 209 191 177 183 183 177 175 169 144 145 144 159 226 195 152 144 109 87 83 141 160 161
289 292 288 282 278 279 283 287 286 269 260 259 248 230 224 221 219 212 192 179 181 186 161 134 124 124 140 156 171 173 166 164 160 185 190 145 139 128 116 42 59 77 107